Date,TemperatureHighF,TemperatureAvgF,TemperatureLowF,DewpointHighF,DewpointAvgF,DewpointLowF,HumidityHigh,HumidityAvg,HumidityLow,PressureMaxIn,PressureMinIn,WindSpeedMaxMPH,WindSpeedAvgMPH,GustSpeedMaxMPH,PrecipitationSumIn
2013-2-20,38,33,29,11,10,8,48,38,30,29.23,29.19,0,0,2,0.00
2013-2-21,56,43,25,36,18,8,90,43,15,29.26,29.00,4,0,7,0.44
2013-2-22,57,50,38,46,43,35,94,79,64,29.10,28.99,4,0,8,0.06
2013-2-23,72,51,43,49,45,40,95,82,60,29.03,28.85,49,0,49,1.11
2013-2-24,61,47,31,40,24,12,89,44,16,29.09,28.94,3,0,7,1.11
2013-2-25,63,48,33,34,27,21,65,46,26,29.08,28.80,4,0,7,0.00
2013-2-26,66,50,42,51,41,33,93,72,50,28.81,28.45,11,2,22,0.43
2013-2-27,48,42,39,36,33,30,80,71,55,28.87,28.70,6,1,15,0.01
2013-2-28,41,37,34,31,26,23,85,64,51,29.01,28.84,7,1,14,0.00
2013-3-1,43,38,34,34,31,27,87,77,62,29.01,28.94,4,0,8,0.03
2013-3-2,40,34,30,34,26,18,92,72,58,29.08,28.96,7,1,12,0.03
2013-3-3,36,30,23,21,17,14,76,58,42,29.11,29.05,4,0,8,0.00
2013-3-4,55,42,18,26,19,12,90,45,20,29.20,29.00,4,0,7,0.00
2013-3-5,47,40,34,46,37,22,97,88,55,29.04,28.64,11,1,24,1.58
2013-3-6,35,33,29,30,28,26,91,84,72,29.27,28.86,4,0,9,0.00
2013-3-7,38,35,32,30,27,25,90,74,66,29.36,29.23,37,0,37,0.05
2013-3-8,57,43,29,29,26,23,78,53,30,29.42,29.29,4,1,8,0.01
2013-3-9,68,52,29,32,29,23,84,44,20,29.32,29.17,5,1,8,0.00
2013-3-10,74,60,42,40,32,25,74,39,17,29.18,28.99,4,0,8,0.00
2013-3-11,67,57,46,52,47,32,94,72,35,29.00,28.78,11,2,100,3.99
2013-3-12,68,47,38,55,32,29,91,58,39,29.11,28.89,6,1,11,4.01
2013-3-13,44,40,33,32,25,15,58,52,38,29.97,29.11,4,0,10,0.00
2013-3-14,50,39,24,23,16,12,68,41,25,29.41,29.24,5,1,11,0.00
2013-3-15,70,56,31,43,36,23,88,49,30,29.27,28.90,5,1,12,0.00
2013-3-16,79,69,58,48,45,41,54,43,30,28.92,28.78,9,2,20,0.00
2013-3-17,76,66,54,50,47,43,77,51,32,28.98,28.84,8,1,13,0.00
2013-3-18,65,55,51,54,50,44,97,85,57,28.91,28.77,8,1,13,0.75
2013-3-19,62,52,34,52,20,-2,97,38,9,29.15,28.85,7,2,14,0.02
2013-3-20,60,46,30,32,13,-1,78,32,8,29.15,28.89,10,2,16,0.00
2013-3-21,44,35,23,18,9,4,56,35,20,29.04,28.94,5,1,11,0.00
2013-3-22,48,40,24,26,17,7,65,42,20,29.09,29.00,4,0,7,0.00
2013-3-23,57,46,38,42,35,25,84,67,52,29.04,28.77,3,0,6,0.01
2013-3-24,54,48,42,51,44,33,96,87,66,28.81,28.38,11,1,21,0.73
2013-3-25,42,35,31,34,29,25,92,79,54,29.03,28.61,8,1,18,0.10
2013-3-26,42,36,32,32,28,25,87,72,55,29.29,29.02,5,1,11,0.02
2013-3-27,53,41,29,30,24,20,86,52,28,29.35,29.26,5,1,9,0.00
2013-3-28,60,44,30,27,17,2,74,42,11,29.36,29.24,5,1,10,0.00
2013-3-29,44,40,30,40,31,19,94,71,49,29.34,29.25,2,0,2,0.21
2013-3-30,65,51,41,48,43,40,96,77,47,29.26,29.02,3,0,5,0.23
2013-3-31,61,55,50,55,52,48,98,89,79,29.02,28.88,4,0,9,0.52
2013-4-1,67,53,41,52,42,31,98,72,33,29.09,28.91,4,1,12,0.00
2013-4-2,60,48,36,32,19,6,55,34,13,29.25,29.09,5,1,11,0.00
2013-4-3,61,51,34,24,18,12,50,28,15,29.29,29.18,6,1,9,0.00
2013-4-4,49,42,40,40,36,16,93,82,28,29.20,28.99,3,0,5,0.67
2013-4-5,112,54,40,47,37,27,95,57,23,29.11,28.98,99,0,99,2.54
2013-4-6,74,60,36,42,36,27,90,47,19,29.20,29.06,4,0,10,0.00
2013-4-7,76,66,52,45,40,34,64,41,26,29.17,29.04,9,1,19,0.00
2013-4-8,80,69,50,53,49,42,78,50,32,29.12,29.00,10,1,20,0.00
2013-4-9,86,73,52,56,53,48,88,53,32,29.20,29.02,8,1,16,0.00
2013-4-10,89,76,54,60,56,51,90,52,31,29.12,28.89,5,1,12,0.02
2013-4-11,86,74,60,62,56,51,94,55,31,28.91,28.66,8,1,15,0.69
2013-4-12,69,60,50,60,42,32,97,54,30,28.96,28.60,8,1,14,0.12
2013-4-13,74,58,42,46,38,31,90,50,24,29.10,28.96,4,0,8,0.00
2013-4-14,74,61,44,52,44,36,85,57,31,29.07,28.95,4,0,10,0.02
2013-4-15,84,70,54,58,54,50,89,59,37,29.11,28.95,4,0,6,0.00
2013-4-16,86,74,54,63,59,52,95,62,42,29.25,29.10,6,0,10,0.00
2013-4-17,77,66,60,64,61,58,96,85,61,29.28,29.07,2,0,6,0.04
2013-4-18,89,75,57,69,56,48,99,57,27,29.07,28.84,5,1,14,0.00
2013-4-19,66,54,47,62,46,33,96,74,56,29.10,28.73,8,1,16,0.95
2013-4-20,67,50,-9,33,29,-33,59,46,17,29.31,29.10,4,0,8,3.05
2013-4-21,75,57,38,39,33,-1,76,44,18,29.40,29.26,3,0,6,4.55
2013-4-22,78,60,43,44,39,34,83,50,22,29.35,29.15,3,0,6,0.00
2013-4-23,78,62,43,49,43,38,88,55,31,29.24,29.04,49,0,49,4.55
2013-4-24,75,59,47,62,51,40,90,75,49,29.25,28.99,6,1,14,0.14
2013-4-25,72,54,38,41,35,25,91,54,18,29.37,29.25,4,0,9,0.00
2013-4-26,74,56,38,44,37,30,86,53,23,29.43,29.30,8,0,14,0.00
2013-4-27,57,54,51,54,51,44,97,90,66,29.37,29.12,1,0,3,0.65
2013-4-28,59,56,53,59,56,52,99,99,97,29.15,28.96,3,0,6,1.04
2013-4-29,78,64,56,59,56,52,99,77,43,29.03,28.95,3,0,7,0.00
2013-4-30,87,74,56,62,54,46,98,54,25,29.09,29.00,3,0,6,0.00
2013-5-1,84,70,56,60,55,51,93,61,37,29.23,29.09,3,0,8,0.00
2013-5-2,84,68,55,60,55,51,87,66,39,29.22,29.11,3,0,7,0.00
2013-5-3,84,68,56,57,52,46,84,59,29,29.15,28.98,4,0,9,0.00
2013-5-6,68,58,50,51,48,46,89,68,52,28.94,28.85,4,0,8,0.25
2013-5-7,73,58,47,54,50,45,97,76,47,28.99,28.90,4,0,8,0.00
2013-5-8,78,63,56,71,57,51,95,81,53,29.17,28.95,4,0,8,8.22
2013-5-9,84,70,55,67,60,54,99,73,44,29.14,29.03,3,0,6,0.06
2013-5-10,76,69,57,63,58,55,97,70,55,29.10,28.95,4,1,12,0.08
2013-5-11,79,68,54,66,58,47,92,71,46,29.02,28.88,8,1,13,0.06
2013-5-12,71,58,49,50,37,21,87,51,17,29.16,29.01,5,1,11,0.00
2013-5-13,73,58,39,41,32,22,84,41,17,29.26,29.14,4,0,9,0.00
2013-5-14,82,66,41,54,46,35,89,53,31,29.25,29.04,6,1,13,8.42
2013-5-15,90,78,63,58,56,50,74,48,30,29.17,28.99,4,1,10,0.00
2013-5-16,87,75,62,60,57,50,80,54,34,29.09,28.98,4,1,11,0.00
2013-5-17,85,74,61,65,62,59,95,70,45,29.12,29.02,4,0,6,0.05
2013-5-18,76,70,64,69,66,63,98,90,76,29.10,29.02,2,0,5,0.33
2013-5-19,80,69,62,73,66,60,99,91,74,29.09,29.02,3,0,9,0.11
2013-5-20,90,75,61,68,65,60,99,74,46,29.15,29.01,3,0,5,0.00
2013-5-21,94,77,64,71,65,60,98,71,40,29.07,28.93,9,0,15,0.00
2013-5-22,91,74,63,71,65,60,96,75,44,28.99,28.85,4,0,14,0.08
2013-5-23,86,74,65,66,60,52,98,64,40,29.04,28.90,5,1,12,0.05
2013-5-24,77,64,53,53,45,36,83,53,28,29.29,29.03,6,1,11,0.00
2013-5-25,83,66,45,48,43,33,90,47,20,29.37,29.19,4,0,7,0.00
2013-5-26,86,69,54,53,50,43,88,54,28,29.33,29.19,4,0,8,0.00
2013-5-27,89,75,56,59,56,52,91,55,31,29.25,29.10,4,1,9,0.00
2013-5-28,92,79,63,65,60,56,88,53,32,29.21,29.09,4,1,9,0.00
2013-5-29,95,80,60,65,62,56,91,55,32,29.24,29.10,4,0,9,0.00
2013-5-30,94,80,61,65,61,57,91,55,33,29.25,29.10,4,0,7,0.00
2013-5-31,94,80,62,65,61,55,90,55,29,29.20,29.06,4,1,12,0.00
2013-6-1,94,81,68,67,64,58,85,58,33,29.09,28.98,5,1,11,0.00
2013-6-3,88,76,66,71,64,58,99,68,43,29.03,28.92,4,0,7,0.00
2013-6-4,92,77,60,65,61,57,93,61,33,29.08,29.00,2,0,4,0.00
2013-6-5,90,74,63,70,66,59,99,79,46,29.07,28.93,4,0,8,0.87
2013-6-6,86,76,64,71,67,64,99,77,53,28.97,28.77,4,0,11,0.03
2013-6-7,87,76,67,71,66,58,95,74,40,28.89,28.75,4,0,10,0.03
2013-6-8,87,72,66,67,66,63,98,84,49,29.05,28.88,4,1,8,0.00
2013-6-11,92,83,72,68,66,62,85,58,40,29.04,28.99,2,0,4,0.97
2013-6-12,78,73,71,71,69,67,91,86,79,29.07,29.02,2,0,6,0.00
2013-6-14,90,79,64,64,59,54,81,53,31,29.08,29.00,4,0,8,0.00
2013-6-15,90,77,60,64,61,58,94,61,38,29.17,29.06,4,0,11,0.00
2013-6-16,91,80,66,68,65,62,94,62,40,29.15,29.02,5,1,11,0.58
2013-6-17,70,70,69,69,68,68,96,95,95,29.09,29.07,1,0,2,0.04
2013-6-18,79,72,66,73,68,64,99,88,71,29.00,28.88,4,0,10,0.75
2013-6-19,94,77,63,71,66,61,99,72,35,29.11,28.98,2,0,4,0.00
2013-6-20,94,79,65,70,66,62,98,69,39,29.22,29.10,2,0,4,0.00
2013-6-21,90,79,66,70,67,64,96,70,44,29.28,29.17,3,0,7,0.00
2013-6-22,94,79,64,70,66,63,97,68,39,29.28,29.10,2,0,5,0.00
2013-6-23,82,70,65,69,65,63,97,85,63,29.24,29.13,1,0,2,0.00
2013-6-24,93,81,67,72,68,64,96,68,40,29.25,29.10,4,0,8,0.00
2013-6-25,92,79,71,73,70,68,91,74,48,29.20,29.05,3,0,8,0.00
2013-6-26,87,78,68,76,72,64,95,83,62,29.10,28.90,4,0,9,0.23
2013-6-27,90,78,68,78,72,67,99,84,61,28.98,28.81,4,1,14,1.50
2013-6-28,88,77,70,76,72,68,99,86,64,28.89,28.69,4,0,7,0.01
2013-6-29,89,78,67,72,65,59,99,68,37,28.74,28.68,4,0,8,0.23
2013-6-30,91,77,65,67,64,55,96,68,32,28.80,28.73,4,1,9,0.00
2013-7-1,82,74,68,69,67,66,94,80,60,28.94,28.88,4,0,7,0.47
2013-7-2,86,74,66,73,69,66,99,86,62,29.10,28.93,4,0,7,0.26
2013-7-3,77,71,66,72,69,66,99,95,84,29.19,29.08,1,0,3,0.40
2013-7-4,81,72,66,75,70,66,99,94,78,29.20,29.11,2,0,3,0.28
2013-7-5,83,75,69,74,70,68,99,87,65,29.21,29.13,3,0,7,0.06
2013-7-7,76,69,67,72,68,66,99,95,85,29.20,29.13,1,0,2,1.82
2013-7-8,95,80,67,74,70,66,99,77,43,29.25,29.13,3,0,4,0.00
2013-7-9,96,81,69,75,72,69,99,76,47,29.20,29.07,4,0,9,0.03
2013-7-10,92,78,71,76,73,67,93,84,58,29.13,28.96,4,0,10,0.04
2013-7-11,90,78,70,78,72,69,98,82,55,29.02,28.91,5,0,10,0.05
2013-7-12,89,79,69,71,66,60,94,67,41,29.02,28.95,5,1,9,0.00
2013-7-13,94,78,66,71,68,57,90,71,41,29.11,29.01,2,0,5,21.09
2013-7-14,95,81,69,76,70,66,93,72,51,29.25,29.10,2,0,4,0.00
2013-7-15,98,83,68,72,69,63,95,65,39,29.33,29.23,97,1,97,21.09
2013-7-16,100,85,69,74,71,68,97,66,40,29.38,29.26,2,0,7,0.00
2013-7-17,99,83,70,78,72,67,98,72,38,29.34,29.18,0,0,1,0.03
2013-7-18,101,83,70,75,72,32,99,73,21,29.28,29.08,2,0,4,0.00
2013-7-19,95,84,70,76,72,69,99,71,46,29.16,29.00,4,0,8,0.00
2013-7-20,96,82,71,75,72,66,97,73,40,29.07,28.94,4,0,9,0.19
2013-7-21,86,75,70,76,72,69,99,91,75,29.06,28.96,2,0,5,0.54
2013-7-22,86,76,71,74,72,69,99,88,63,29.03,28.86,4,1,9,0.71
2013-7-23,72,72,72,71,71,71,97,97,97,28.93,28.93,0,0,1,0.00
2013-7-24,87,77,70,79,72,66,98,84,66,28.94,28.85,5,0,8,0.53
2013-7-25,90,78,66,71,65,61,96,66,41,29.09,28.93,4,0,8,0.00
2013-7-26,92,76,62,74,67,60,97,77,46,29.11,29.01,5,0,11,0.09
2013-7-27,86,75,68,74,69,66,99,84,57,29.04,28.90,2,0,5,0.13
2013-7-28,88,77,68,69,63,54,95,65,35,29.11,28.94,4,1,9,0.00
2013-7-29,90,74,59,60,57,49,87,58,27,29.23,29.10,3,0,5,0.00
2013-7-30,83,72,60,66,64,58,96,76,53,29.27,29.17,24,0,4,23.36
2013-7-31,80,73,65,70,68,64,97,85,68,29.18,29.00,4,0,11,23.37
2013-8-1,92,79,70,73,69,66,98,73,46,29.03,28.97,5,0,10,23.37
2013-8-2,96,79,64,70,65,60,98,67,35,29.08,29.02,3,0,6,0.00
2013-8-3,89,79,67,72,69,64,95,73,50,29.08,29.00,4,0,9,0.00
2013-8-4,90,79,69,72,65,57,96,64,36,29.11,29.04,4,0,10,0.00
2013-8-5,92,77,61,67,62,51,94,63,28,29.12,29.00,5,0,10,0.00
2013-8-6,91,80,69,72,69,64,89,70,49,29.04,28.98,4,0,8,0.00
2013-8-7,86,78,72,75,73,71,99,85,67,29.08,28.97,3,0,6,0.86
2013-8-8,85,78,70,76,73,69,98,85,71,29.09,29.00,3,0,7,0.00
2013-8-9,95,79,70,81,73,69,99,84,52,29.11,29.01,4,0,8,0.14
2013-8-10,92,76,71,78,73,70,99,92,61,29.16,29.08,3,0,8,0.52
2013-8-11,91,77,70,77,73,70,99,89,57,29.19,29.07,9,0,17,0.05
2013-8-12,89,77,70,77,72,69,99,87,64,29.15,29.00,4,0,8,0.00
2013-8-13,90,77,72,75,72,68,98,84,55,29.01,28.90,7,1,14,0.28
2013-8-14,87,73,63,68,62,56,91,71,40,29.10,28.97,4,0,8,0.00
2013-8-15,90,75,61,67,62,55,84,67,43,29.12,29.03,4,0,8,0.00
2013-8-16,91,79,70,68,65,62,87,64,42,29.12,29.05,2,0,4,0.00
2013-8-17,78,72,64,68,63,61,91,75,62,29.18,29.11,2,0,2,25.25
2013-9-10,90,80,74,71,69,64,82,69,49,29.24,29.13,2,0,6,2.38
2013-9-11,94,78,68,74,70,67,99,78,47,29.26,29.13,4,0,7,0.00
2013-9-12,90,77,67,75,70,64,99,82,59,29.10,28.93,8,1,21,0.26
2013-9-13,82,71,61,72,58,51,99,67,37,29.02,28.93,4,1,8,27.90
2013-9-14,78,62,51,58,52,49,93,73,42,29.11,29.01,2,0,6,0.00
2013-9-16,89,75,66,69,63,59,99,68,41,29.20,29.14,4,0,8,0.00
2013-9-17,83,73,62,66,63,59,93,74,53,29.25,29.15,2,0,5,0.00
2013-9-18,74,68,63,66,63,60,96,83,68,29.25,29.16,2,0,3,0.00
2013-9-19,86,71,60,70,64,60,99,82,55,29.21,29.09,4,0,8,0.00
2013-9-24,87,76,41,67,64,32,99,67,38,29.97,28.92,2,0,4,17.40
2013-9-25,72,68,66,68,67,66,99,95,88,28.92,28.86,1,0,3,0.00
2013-9-26,85,71,60,69,63,58,99,79,47,29.06,28.90,3,0,6,0.00
2013-9-27,88,70,56,68,59,55,99,73,37,29.18,29.06,3,0,5,0.00
2013-9-28,84,69,56,65,60,55,99,77,46,29.25,29.11,3,0,5,0.00
2013-9-29,75,66,60,62,60,58,97,81,59,29.17,29.03,2,0,5,0.00
2013-9-30,81,68,57,65,59,56,99,76,46,29.12,29.01,3,0,6,0.00
2013-10-1,84,69,57,65,62,57,99,78,48,29.19,29.07,4,0,6,0.00
2013-10-2,88,72,59,69,65,59,99,80,48,29.21,29.09,2,0,5,0.00
2013-10-3,88,74,64,70,66,62,99,79,44,29.17,29.07,3,0,6,0.00
2013-10-4,89,73,61,71,65,60,99,77,45,29.21,29.10,3,0,5,0.00
2013-10-5,91,75,61,71,66,61,99,77,45,29.17,29.02,4,0,6,0.00
2013-10-6,88,79,68,68,64,60,92,62,41,29.00,28.83,6,1,14,0.04
2013-10-7,78,65,55,66,52,47,99,66,37,29.11,28.87,6,1,10,0.17
2013-10-8,81,62,53,53,50,47,83,68,37,29.16,29.10,1,0,4,0.00
2013-10-9,84,66,50,58,55,49,97,70,39,29.24,29.13,3,0,5,0.00
2013-10-10,82,66,51,59,53,49,99,68,36,29.19,29.06,4,0,7,0.00
2013-10-11,86,74,52,62,56,51,99,58,39,29.12,29.01,4,1,7,0.00
2013-10-12,86,76,54,61,56,53,99,57,35,29.12,29.02,4,2,6,0.00
2013-10-13,85,80,62,62,56,54,94,48,35,29.24,29.07,4,3,6,0.00
2013-10-14,89,71,59,66,61,58,98,74,39,29.26,29.12,3,0,5,0.00
2013-10-15,76,67,59,66,61,58,98,83,64,29.17,29.05,3,0,5,29.92
2013-10-16,71,65,60,62,59,56,96,83,70,29.09,28.98,4,0,8,0.00
2013-10-17,69,62,56,68,60,51,99,93,80,29.04,28.88,4,0,10,0.37
2013-10-18,72,57,48,55,49,46,97,78,45,29.10,28.98,3,0,5,0.00
2013-10-19,53,50,46,49,47,43,93,87,79,29.06,28.98,2,0,4,0.00
2013-10-20,71,54,38,49,41,37,97,67,34,29.13,29.04,3,0,7,0.00
2013-10-21,76,56,38,52,44,37,98,70,34,29.15,29.00,4,0,9,0.00
2013-10-22,70,58,50,53,49,46,89,74,52,29.17,28.87,4,0,7,19.14
2013-10-23,56,47,35,49,38,31,91,71,50,29.12,28.81,7,1,11,0.00
2013-10-24,58,46,34,40,36,30,92,71,43,29.28,29.10,5,0,14,0.00
2013-10-25,61,41,29,34,26,20,84,60,23,29.45,29.28,5,0,10,0.00
2013-10-26,61,45,28,37,27,22,90,57,23,29.35,29.10,6,0,12,0.00
2013-10-27,67,55,50,43,35,29,60,48,37,29.15,29.09,3,0,7,0.00
2013-11-19,56,56,56,46,46,46,68,68,68,29.10,29.10,0,0,0,0.00